Location: Bothwell
(41.7170°N, 112.2589°W)
Time: 05:39:28
(UTC+00:00)

Vanguard 2 - All Passes

Search period start: 10 May 2026 00:00
Search period end: 20 May 2026 00:00
Orbit: 554 x 2895 km, 32.9° (Epoch: 9 May)

Date Brightness Start Highest point End Pass type
(mag) Time Alt. Az. Time Alt. Az. Time Alt. Az.
10 May - 07:20:33 10° SSE 07:27:41 14° SE 07:34:38 10° ESE visible
10 May - 09:22:35 10° SSW 09:37:23 35° SSE 09:49:50 10° E visible
10 May - 11:31:45 10° WSW 11:47:53 53° S 11:59:12 10° E visible
10 May - 13:43:42 10° W 13:57:54 55° S 14:06:48 10° ESE daylight
10 May - 15:56:32 10° W 16:06:11 32° SSW 16:12:35 10° SSE daylight
11 May - 07:28:44 10° S 07:38:55 19° SE 07:48:48 10° ESE visible
11 May - 09:33:15 10° SW 09:48:50 41° SSE 10:01:50 10° E visible
11 May - 11:43:09 10° WSW 11:59:30 57° S 12:10:55 10° E visible
11 May - 13:55:23 10° W 14:09:27 52° SSW 14:18:19 10° ESE daylight
11 May - 16:08:33 10° W 16:17:27 27° SW 16:23:35 10° SSE daylight
12 May - 07:38:05 10° S 07:50:09 24° SE 08:01:53 10° E visible
12 May - 09:44:09 10° SW 10:00:19 46° SSE 10:13:42 10° E visible
12 May - 11:54:37 10° WSW 12:11:07 59° S 12:22:34 10° ESE daylight
12 May - 14:07:06 10° W 14:20:57 49° SSW 14:29:46 10° SE daylight
12 May - 16:20:45 10° W 16:28:37 22° SW 16:34:20 10° S daylight
13 May - 07:48:03 10° SSW 08:01:24 29° SE 08:14:26 10° E visible
13 May - 09:55:15 10° SW 10:11:49 51° SSE 10:25:30 10° E visible
13 May - 12:06:11 10° WSW 12:22:43 60° S 12:34:12 10° ESE daylight
13 May - 14:18:51 10° W 14:32:23 45° SSW 14:41:08 10° SE daylight
13 May - 16:33:19 10° W 16:39:42 17° SW 16:44:41 10° S daylight
14 May - 05:58:44 10° SSE 06:03:35 12° SE 06:08:35 10° ESE visible
14 May - 07:58:23 10° SSW 08:12:41 35° SSE 08:26:39 10° E visible
14 May - 10:06:29 10° WSW 10:23:23 55° SSE 10:37:15 10° E visible
14 May - 12:17:48 10° W 12:34:19 59° S 12:45:47 10° ESE daylight
14 May - 14:30:39 10° W 14:43:44 40° SSW 14:52:22 10° SE daylight
14 May - 16:46:39 10° WSW 16:50:43 13° SW 16:54:12 10° SSW daylight
15 May - 06:06:06 10° SSE 06:14:39 17° SE 06:23:42 10° ESE visible
15 May - 08:09:03 10° SSW 08:24:00 40° SSE 08:38:40 10° E visible
15 May - 10:17:50 10° WSW 10:34:56 59° S 10:48:56 10° E visible
15 May - 12:29:27 10° W 12:45:52 58° SSW 12:57:18 10° ESE daylight
15 May - 14:42:33 10° W 14:54:59 35° SSW 15:03:27 10° SSE daylight
16 May - 06:15:14 10° S 06:25:43 22° SE 06:37:06 10° E visible
16 May - 08:19:55 10° SW 08:35:20 45° SSE 08:50:34 10° E visible
16 May - 10:29:17 10° WSW 10:46:31 61° S 11:00:35 10° E visible
16 May - 12:41:08 10° W 12:57:23 55° SSW 13:08:45 10° ESE daylight
16 May - 14:54:34 10° W 15:06:10 30° SW 15:14:21 10° SSE daylight
17 May - 06:25:05 10° S 06:36:48 27° SE 06:49:48 10° E visible
17 May - 08:30:59 10° SW 08:46:46 50° SSE 09:02:22 10° E visible
17 May - 10:40:49 10° WSW 10:58:06 62° S 11:12:13 10° ESE visible
17 May - 12:52:51 10° W 13:08:50 51° SSW 13:20:08 10° SE daylight
17 May - 15:06:48 10° W 15:17:16 25° SW 15:24:58 10° S daylight
18 May - 06:35:23 10° SSW 06:47:55 32° SE 07:02:08 10° E visible
18 May - 08:42:12 10° SW 08:58:13 55° SSE 09:14:07 10° E visible
18 May - 10:52:24 10° WSW 11:09:41 62° S 11:23:47 10° ESE visible
18 May - 13:04:36 10° W 13:20:13 47° SSW 13:31:24 10° SE daylight
18 May - 15:19:21 10° W 15:28:17 20° SW 15:35:13 10° S daylight
19 May - 04:45:25 10° SSE 04:50:44 13° SE 04:56:31 10° ESE visible
19 May - 06:46:00 10° SSW 06:59:05 37° SSE 07:14:13 10° E visible
19 May - 08:53:31 10° WSW 09:09:43 59° SSE 09:25:48 10° E visible
19 May - 11:04:01 10° W 11:21:15 61° S 11:35:19 10° ESE visible
19 May - 13:16:25 10° W 13:31:30 42° SSW 13:42:32 10° SE daylight
19 May - 15:32:33 10° WSW 15:39:14 15° SW 15:44:47 10° SSW daylight
